TimeEDT,TemperatureF,Dew PointF,Humidity,Sea Level PressureIn,VisibilityMPH,Wind Direction,Wind SpeedMPH,Gust SpeedMPH,PrecipitationIn,Events,Conditions,WindDirDegrees,DateUTC
12:06 AM,75.2,75.2,100,30.33,10.0,South,3.5,-,N/A,,Clear,170,2013-07-14 04:06:00
12:26 AM,75.2,75.2,100,30.33,10.0,Calm,Calm,-,N/A,,Mostly Cloudy,0,2013-07-14 04:26:00
12:46 AM,74.8,74.8,100,30.33,10.0,SE,3.5,-,N/A,,Mostly Cloudy,140,2013-07-14 04:46:00
1:06 AM,74.5,74.5,100,30.33,10.0,SSE,4.6,-,N/A,,Scattered Clouds,150,2013-07-14 05:06:00
1:27 AM,74.3,74.3,100,30.34,10.0,SSE,4.6,-,N/A,,Scattered Clouds,160,2013-07-14 05:27:00
1:47 AM,74.7,74.7,100,30.33,10.0,SSE,4.6,-,N/A,,Scattered Clouds,150,2013-07-14 05:47:00
2:07 AM,74.3,74.3,100,30.33,7.0,South,5.8,-,N/A,,Clear,170,2013-07-14 06:07:00
2:27 AM,75.2,75.2,100,30.33,7.0,South,6.9,-,N/A,,Scattered Clouds,170,2013-07-14 06:27:00
2:47 AM,75.6,75.6,100,30.33,7.0,South,4.6,-,N/A,,Overcast,170,2013-07-14 06:47:00
3:07 AM,75.4,75.4,100,30.33,7.0,South,5.8,-,N/A,,Overcast,180,2013-07-14 07:07:00
3:27 AM,75.4,75.4,100,30.32,7.0,South,4.6,-,N/A,,Overcast,170,2013-07-14 07:27:00
3:47 AM,75.2,75.2,100,30.33,7.0,South,3.5,-,N/A,,Overcast,170,2013-07-14 07:47:00
4:07 AM,75.2,75.2,100,30.33,7.0,South,4.6,-,N/A,,Overcast,170,2013-07-14 08:07:00
4:27 AM,75.2,75.2,100,30.33,7.0,Calm,Calm,-,N/A,,Overcast,0,2013-07-14 08:27:00
4:47 AM,75.2,75.2,100,30.33,7.0,South,3.5,-,N/A,,Overcast,180,2013-07-14 08:47:00
5:07 AM,75.2,75.2,100,30.33,7.0,Calm,Calm,-,N/A,,Overcast,0,2013-07-14 09:07:00
5:27 AM,74.8,74.8,100,30.34,5.0,South,3.5,-,N/A,,Overcast,190,2013-07-14 09:27:00
5:47 AM,74.8,74.8,100,30.34,3.0,South,4.6,-,N/A,,Overcast,190,2013-07-14 09:47:00
5:50 AM,75.2,75.2,100,30.34,0.5,South,3.5,-,N/A,Fog,Fog,190,2013-07-14 09:50:00
6:07 AM,74.8,74.8,100,30.34,1.2,SSW,3.5,-,N/A,,Overcast,210,2013-07-14 10:07:00
6:27 AM,74.8,74.8,100,30.35,1.8,Calm,Calm,-,N/A,,Overcast,0,2013-07-14 10:27:00
6:47 AM,75.0,75.0,100,30.35,1.2,SSW,3.5,-,N/A,,Overcast,200,2013-07-14 10:47:00
6:53 AM,75.2,75.2,100,30.36,0.5,South,3.5,-,N/A,Fog,Fog,170,2013-07-14 10:53:00
7:07 AM,75.2,75.2,100,30.36,1.0,South,3.5,-,N/A,,Overcast,170,2013-07-14 11:07:00
7:27 AM,75.4,75.4,100,30.36,0.8,South,4.6,-,N/A,,Overcast,190,2013-07-14 11:27:00
7:42 AM,76.3,76.3,100,30.36,2.5,SSW,3.5,-,N/A,,Overcast,210,2013-07-14 11:42:00
7:45 AM,75.2,75.2,100,30.36,3.0,South,4.6,-,N/A,,Mostly Cloudy,180,2013-07-14 11:45:00
8:50 AM,80.6,80.6,100,30.38,7.0,SW,6.9,-,N/A,,Overcast,220,2013-07-14 12:50:00
9:47 AM,82.4,73.4,74,30.38,10.0,SW,4.6,-,N/A,,Mostly Cloudy,220,2013-07-14 13:47:00
10:50 AM,86.0,75.2,70,30.37,10.0,SSW,5.8,-,N/A,,Mostly Cloudy,200,2013-07-14 14:50:00
11:47 AM,86.0,75.2,70,30.38,10.0,West,3.5,-,N/A,,Scattered Clouds,270,2013-07-14 15:47:00
11:50 AM,86.0,75.2,70,30.38,10.0,West,3.5,-,N/A,,Mostly Cloudy,260,2013-07-14 15:50:00
12:08 PM,85.5,76.3,74,30.38,10.0,WSW,5.8,-,N/A,,Scattered Clouds,250,2013-07-14 16:08:00
12:16 PM,86.2,75.2,70,30.38,10.0,Calm,Calm,-,N/A,,Scattered Clouds,0,2013-07-14 16:16:00
12:50 PM,89.6,75.2,62,30.37,10.0,West,8.1,-,N/A,,Mostly Cloudy,260,2013-07-14 16:50:00
1:50 PM,87.8,75.2,66,30.36,10.0,West,5.8,-,N/A,,Mostly Cloudy,260,2013-07-14 17:50:00
2:53 PM,89.6,75.2,62,30.35,10.0,West,5.8,-,N/A,,Mostly Cloudy,270,2013-07-14 18:53:00
3:53 PM,89.6,71.6,55,30.34,10.0,SW,6.9,-,N/A,,Mostly Cloudy,230,2013-07-14 19:53:00
5:53 PM,89.6,73.4,59,30.32,10.0,WSW,5.8,-,N/A,,Mostly Cloudy,250,2013-07-14 21:53:00
6:53 PM,89.6,71.6,55,30.32,10.0,WSW,3.5,-,N/A,,Scattered Clouds,250,2013-07-14 22:53:00
7:53 PM,84.2,71.6,66,30.32,10.0,SSW,3.5,-,N/A,,Scattered Clouds,210,2013-07-14 23:53:00
8:53 PM,80.6,71.6,74,30.33,10.0,SW,3.5,-,N/A,,Scattered Clouds,220,2013-07-15 00:53:00
10:49 PM,77.4,73.4,88,30.34,10.0,South,4.6,-,N/A,,Clear,190,2013-07-15 02:49:00
11:09 PM,77.0,73.6,89,30.34,10.0,SSW,3.5,-,N/A,,Clear,210,2013-07-15 03:09:00
11:29 PM,76.8,74.1,91,30.34,10.0,SSW,4.6,-,N/A,,Clear,210,2013-07-15 03:29:00
11:49 PM,76.8,74.5,92,30.34,10.0,SSW,5.8,-,N/A,,Clear,200,2013-07-15 03:49:00